EW7200 Weather Reports


Display with metric or nautical units.
time (UTC)temp
F
wind
direction
speed
MPH
gust
MPH
rain 1hr
in
rain 24hr
in
rain mn
in
humidity
%
barometer
mb
20190220180146 44 360 0.0 0.0 0.00 0.08 0.08 95 1021.1
20190220174646 44 360 0.0 0.0 0.00 0.08 0.08 95 1021.2
20190220173148 44 360 0.0 1.0 0.00 0.08 0.08 95 1021.2
20190220171644 44 360 0.0 10.0 0.00 0.08 0.08 95 1021.1
20190220170129 43 360 1.0 6.0 0.00 0.08 0.08 95 1021.4
20190220164639 43 360 1.0 6.0 0.00 0.10 0.08 95 1021.8
20190220163112 42 360 1.0 9.0 0.00 0.10 0.08 95 1022.2
20190220161627 42 58 0.0 10.0 0.00 0.10 0.08 95 1022.5
20190220160116 42 55 2.0 7.0 0.00 0.10 0.08 95 1022.7
20190220154603 42 331 0.0 7.0 0.00 0.15 0.08 95 1022.9
20190220153038 42 9 1.0 6.0 0.00 0.15 0.08 95 1023.2
20190220151616 41 333 1.0 6.0 0.00 0.15 0.08 95 1023.5
20190220150104 41 327 2.0 12.0 0.01 0.15 0.08 95 1023.6
20190220144545 41 61 1.0 8.0 0.01 0.16 0.08 95 1023.6
20190220143111 41 9 1.0 6.0 0.01 0.16 0.08 95 1023.6
20190220141554 41 111 0.0 6.0 0.01 0.16 0.08 95 1023.8
20190220140046 41 68 1.0 6.0 0.01 0.15 0.07 95 1023.9
20190220134533 41 355 0.0 3.0 0.01 0.15 0.07 95 1023.9
20190220133043 40 71 0.0 4.0 0.01 0.15 0.07 95 1023.5
20190220131515 40 65 0.0 7.0 0.01 0.15 0.07 95 1023.6
20190220130029 40 334 1.0 8.0 0.00 0.14 0.06 94 1023.1
20190220124509 40 19 0.0 5.0 0.01 0.14 0.06 94 1023.3
20190220123016 40 348 0.0 4.0 0.01 0.14 0.06 94 1023.2
20190220121513 40 79 0.0 8.0 0.01 0.14 0.06 94 1023.2
20190220120003 40 49 0.0 2.0 0.01 0.14 0.06 94 1023.4
20190220114707 40 58 0.0 5.0 0.00 0.13 0.05 94 1023.4
20190220113140 40 15 0.0 5.0 0.01 0.13 0.05 94 1023.4
20190220111621 40 334 0.0 4.0 0.01 0.13 0.05 94 1023.7
20190220110113 40 328 0.0 2.0 0.01 0.13 0.05 93 1023.9
20190220104605 40 355 0.0 1.0 0.01 0.13 0.05 93 1024.1
20190220103117 40 9 0.0 5.0 0.04 0.12 0.04 93 1023.8
20190220101844 40 40 0.0 5.0 0.04 0.12 0.04 92 1024.0
20190220100142 40 351 0.0 5.0 0.04 0.12 0.04 92 1023.9
20190220094646 41 17 0.0 4.0 0.03 0.11 0.03 90 1024.0
20190220093113 41 325 0.0 4.0 0.00 0.08 0.00 87 1024.5
20190220091620 41 38 1.0 6.0 0.00 0.08 0.00 85 1024.0
20190220090119 41 355 0.0 9.0 0.00 0.08 0.00 85 1024.5
20190220084545 41 336 0.0 3.0 0.00 0.08 0.00 86 1024.5
20190220083120 42 76 0.0 6.0 0.00 0.08 0.00 85 1024.6
20190220081736 42 9 0.0 4.0 0.00 0.08 0.00 85 1025.0
20190220080049 42 73 0.0 4.0 0.00 0.08 0.00 84 1025.4
20190220074616 42 355 0.0 5.0 0.00 0.08 0.00 85 1025.5
20190220073044 41 83 0.0 3.0 0.00 0.08 0.00 85 1025.7
20190220071555 41 85 1.0 6.0 0.00 0.08 0.00 84 1026.3
20190220070048 41 30 0.0 6.0 0.00 0.08 0.00 84 1026.4
20190220064532 41 11 1.0 6.0 0.00 0.08 0.00 84 1026.5
20190220063051 41 62 2.0 6.0 0.00 0.08 0.00 84 1026.6
20190220061539 41 86 2.0 8.0 0.00 0.08 0.00 86 1026.7
20190220060023 41 82 0.0 8.0 0.00 0.08 0.00 87 1026.8
20190220054525 40 88 2.0 10.0 0.00 0.08 0.00 87 1026.8
20190220053108 40 111 0.0 14.0 0.00 0.08 0.00 88 1026.7
20190220051534 40 82 1.0 10.0 0.00 0.08 0.00 88 1027.1
20190220050015 40 78 0.0 9.0 0.00 0.08 0.00 89 1027.5
20190220044537 40 38 2.0 10.0 0.00 0.08 0.08 89 1027.3
20190220043011 40 343 2.0 12.0 0.00 0.08 0.08 88 1027.7
20190220041509 40 308 1.0 12.0 0.00 0.08 0.08 89 1027.9
20190220040015 40 79 5.0 15.0 0.00 0.08 0.08 90 1027.9
20190220034503 40 112 6.0 13.0 0.00 0.08 0.08 89 1028.4
20190220033200 40 76 3.0 14.0 0.00 0.08 0.08 89 1028.8
20190220031651 40 84 3.0 9.0 0.00 0.08 0.08 88 1028.9
20190220030145 40 293 1.0 13.0 0.00 0.08 0.08 88 1029.0
20190220024720 40 92 3.0 13.0 0.00 0.08 0.08 88 1029.0
20190220023128 40 77 3.0 9.0 0.00 0.08 0.08 87 1028.9
20190220021717 40 80 3.0 9.0 0.00 0.08 0.08 87 1029.3
20190220020247 40 9 2.0 10.0 0.00 0.08 0.08 87 1029.7
20190220014717 40 304 1.0 11.0 0.00 0.08 0.08 86 1029.7
20190220013155 41 78 1.0 6.0 0.00 0.08 0.08 84 1030.2
20190220011613 41 338 0.0 12.0 0.00 0.08 0.08 81 1030.4
20190220010125 41 355 1.0 8.0 0.00 0.08 0.08 80 1030.6
20190220004735 41 90 0.0 4.0 0.00 0.08 0.08 80 1030.5
20190220003110 41 322 0.0 5.0 0.00 0.08 0.08 79 1030.6
20190220001714 41 96 1.0 6.0 0.00 0.08 0.08 78 1029.6
20190220000135 41 51 2.0 10.0 0.00 0.08 0.08 78 1029.9
20190219234603 41 52 1.0 10.0 0.00 0.08 0.08 79 1029.4
20190219233130 41 131 1.0 10.0 0.00 0.08 0.08 79 1029.3
20190219231707 41 95 1.0 13.0 0.00 0.08 0.08 79 1028.9
20190219230107 41 327 0.0 14.0 0.00 0.08 0.08 80 1028.7
20190219224636 41 13 4.0 9.0 0.00 0.08 0.08 81 1028.4
20190219223104 41 94 2.0 10.0 0.00 0.08 0.08 82 1029.0
20190219221604 41 10 1.0 13.0 0.00 0.08 0.08 82 1028.7
20190219220059 41 16 1.0 11.0 0.00 0.08 0.08 82 1029.2
20190219214602 42 349 2.0 11.0 0.00 0.08 0.08 82 1028.8
20190219213133 42 348 1.0 12.0 0.00 0.08 0.08 82 1028.9
20190219211553 42 38 0.0 8.0 0.00 0.08 0.08 83 1029.0
20190219210048 41 360 0.0 11.0 0.00 0.08 0.08 84 1028.9
20190219204628 41 63 3.0 12.0 0.00 0.08 0.08 86 1028.6
20190219203048 41 355 0.0 5.0 0.00 0.08 0.08 85 1029.2
20190219201559 41 310 0.0 8.0 0.00 0.08 0.08 85 1028.8
20190219200041 41 348 2.0 10.0 0.00 0.08 0.08 83 1028.4
20190219194557 41 360 1.0 10.0 0.00 0.08 0.08 84 1028.4
20190219193101 41 360 1.0 5.0 0.00 0.08 0.08 84 1028.2
20190219191554 41 360 2.0 11.0 0.00 0.08 0.08 84 1028.3
20190219190103 41 360 2.0 10.0 0.00 0.08 0.08 86 1028.4
20190219184537 40 360 2.0 10.0 0.00 0.08 0.08 86 1029.0
20190219183032 40 360 1.0 12.0 0.00 0.08 0.08 89 1029.2
20190219181523 40 360 2.0 6.0 0.00 0.08 0.08 89 1029.8